Year,Month,Day,Hour,Minute,Value (Times are PST for temperature in C)
2010,09,15,00,00,11.50
2010,09,15,00,01,11.50
2010,09,15,00,02,11.50
2010,09,15,00,03,11.40
2010,09,15,00,04,11.40
2010,09,15,00,05,11.40
2010,09,15,00,06,11.40
2010,09,15,00,07,11.40
2010,09,15,00,08,11.40
2010,09,15,00,09,11.40
2010,09,15,00,10,11.40
2010,09,15,00,11,11.40
2010,09,15,00,12,11.40
2010,09,15,00,13,11.30
2010,09,15,00,14,11.30
2010,09,15,00,15,11.30
2010,09,15,00,16,11.30
2010,09,15,00,17,11.30
2010,09,15,00,18,11.20
2010,09,15,00,19,11.20
2010,09,15,00,20,11.20
2010,09,15,00,21,11.20
2010,09,15,00,22,11.10
2010,09,15,00,23,11.10
2010,09,15,00,24,11.10
2010,09,15,00,25,11.10
2010,09,15,00,26,11.10
2010,09,15,00,27,11.10
2010,09,15,00,28,11.10
2010,09,15,00,29,11.10
2010,09,15,00,30,11.10
2010,09,15,00,31,11.10
2010,09,15,00,32,11.10
2010,09,15,00,33,11.10
2010,09,15,00,34,11.10
2010,09,15,00,35,11.10
2010,09,15,00,36,11.10
2010,09,15,00,37,11.10
2010,09,15,00,38,11.10
2010,09,15,00,39,11.10
2010,09,15,00,40,11.10
2010,09,15,00,41,11.10
2010,09,15,00,42,11.10
2010,09,15,00,43,11.10
2010,09,15,00,44,11.10
2010,09,15,00,45,11.10
2010,09,15,00,46,11.10
2010,09,15,00,47,11.10
2010,09,15,00,48,11.10
2010,09,15,00,49,11.10
2010,09,15,00,50,11.00
2010,09,15,00,51,11.00
2010,09,15,00,52,11.00
2010,09,15,00,53,11.00
2010,09,15,00,54,11.00
2010,09,15,00,55,11.10
2010,09,15,00,56,11.10
2010,09,15,00,57,11.10
2010,09,15,00,58,11.10
2010,09,15,00,59,11.10
2010,09,15,01,00,11.00
2010,09,15,01,01,11.00
2010,09,15,01,02,11.00
2010,09,15,01,03,11.00
2010,09,15,01,04,11.00
2010,09,15,01,05,11.00
2010,09,15,01,06,11.00
2010,09,15,01,07,11.00
2010,09,15,01,08,11.00
2010,09,15,01,09,11.00
2010,09,15,01,10,11.00
2010,09,15,01,11,11.00
2010,09,15,01,12,11.00
2010,09,15,01,13,11.00
2010,09,15,01,14,11.00
2010,09,15,01,15,11.00
2010,09,15,01,16,11.00
2010,09,15,01,17,11.00
2010,09,15,01,18,11.00
2010,09,15,01,19,11.00
2010,09,15,01,20,11.00
2010,09,15,01,21,11.00
2010,09,15,01,22,11.00
2010,09,15,01,23,11.00
2010,09,15,01,24,11.00
2010,09,15,01,25,11.00
2010,09,15,01,26,11.00
2010,09,15,01,27,11.00
2010,09,15,01,28,11.00
2010,09,15,01,29,10.90
2010,09,15,01,30,10.90
2010,09,15,01,31,10.90
2010,09,15,01,32,10.90
2010,09,15,01,33,10.90
2010,09,15,01,34,10.90
2010,09,15,01,35,10.80
2010,09,15,01,36,10.80
2010,09,15,01,37,10.80
2010,09,15,01,38,10.80
2010,09,15,01,39,10.80
2010,09,15,01,40,10.80
2010,09,15,01,41,10.80
2010,09,15,01,42,10.90
2010,09,15,01,43,10.90
2010,09,15,01,44,10.90
2010,09,15,01,45,10.90
2010,09,15,01,46,10.90
2010,09,15,01,47,10.90
2010,09,15,01,48,10.90
2010,09,15,01,49,10.90
2010,09,15,01,50,10.90
2010,09,15,01,51,10.90
2010,09,15,01,52,10.90
2010,09,15,01,53,10.90
2010,09,15,01,54,10.90
2010,09,15,01,55,10.90
2010,09,15,01,56,10.90
2010,09,15,01,57,10.90
2010,09,15,01,58,10.90
2010,09,15,01,59,10.90
2010,09,15,02,00,10.80
2010,09,15,02,01,10.80
2010,09,15,02,02,10.80
2010,09,15,02,03,10.80
2010,09,15,02,04,10.80
2010,09,15,02,05,10.80
2010,09,15,02,06,10.80
2010,09,15,02,07,10.80
2010,09,15,02,08,10.80
2010,09,15,02,09,10.80
2010,09,15,02,10,10.90
2010,09,15,02,11,10.90
2010,09,15,02,12,10.90
2010,09,15,02,13,10.90
2010,09,15,02,14,10.90
2010,09,15,02,15,10.90
2010,09,15,02,16,10.90
2010,09,15,02,17,10.90
2010,09,15,02,18,10.90
2010,09,15,02,19,10.90
2010,09,15,02,20,11.00
2010,09,15,02,21,11.00
2010,09,15,02,22,11.00
2010,09,15,02,23,11.00
2010,09,15,02,24,11.00
2010,09,15,02,25,11.00
2010,09,15,02,26,11.00
2010,09,15,02,27,11.10
2010,09,15,02,28,11.10
2010,09,15,02,29,11.10
2010,09,15,02,30,11.10
2010,09,15,02,31,11.10
2010,09,15,02,32,11.10
2010,09,15,02,33,11.10
2010,09,15,02,34,11.10
2010,09,15,02,35,11.10
2010,09,15,02,36,11.10
2010,09,15,02,37,11.10
2010,09,15,02,38,11.10
2010,09,15,02,39,11.10
2010,09,15,02,40,11.10
2010,09,15,02,41,11.10
2010,09,15,02,42,11.10
2010,09,15,02,43,11.10
2010,09,15,02,44,11.10
2010,09,15,02,45,11.20
2010,09,15,02,46,11.20
2010,09,15,02,47,11.20
2010,09,15,02,48,11.20
2010,09,15,02,49,11.20
2010,09,15,02,50,11.20
2010,09,15,02,51,11.10
2010,09,15,02,52,11.10
2010,09,15,02,53,11.10
2010,09,15,02,54,11.10
2010,09,15,02,55,11.10
2010,09,15,02,56,11.10
2010,09,15,02,57,11.10
2010,09,15,02,58,11.00
2010,09,15,02,59,11.00
2010,09,15,03,00,11.00
2010,09,15,03,01,11.00
2010,09,15,03,02,11.00
2010,09,15,03,03,11.00
2010,09,15,03,04,11.00
2010,09,15,03,05,11.00
2010,09,15,03,06,11.10
2010,09,15,03,07,11.00
2010,09,15,03,08,11.10
2010,09,15,03,09,11.10
2010,09,15,03,10,11.10
2010,09,15,03,11,11.10
2010,09,15,03,12,11.10
2010,09,15,03,13,11.10
2010,09,15,03,14,11.10
2010,09,15,03,15,11.10
2010,09,15,03,16,11.10
2010,09,15,03,17,11.10
2010,09,15,03,18,11.10
2010,09,15,03,19,11.10
2010,09,15,03,20,11.10
2010,09,15,03,21,11.10
2010,09,15,03,22,11.10
2010,09,15,03,23,11.10
2010,09,15,03,24,11.10
2010,09,15,03,25,11.10
2010,09,15,03,26,11.10
2010,09,15,03,27,11.10
2010,09,15,03,28,11.10
2010,09,15,03,29,11.10
2010,09,15,03,30,11.10
2010,09,15,03,31,11.00
2010,09,15,03,32,11.00
2010,09,15,03,33,11.00
2010,09,15,03,34,11.00
2010,09,15,03,35,11.00
2010,09,15,03,36,11.00
2010,09,15,03,37,11.10
2010,09,15,03,38,11.10
2010,09,15,03,39,11.10
2010,09,15,03,40,11.10
2010,09,15,03,41,11.10
2010,09,15,03,42,11.10
2010,09,15,03,43,11.10
2010,09,15,03,44,11.10
2010,09,15,03,45,11.10
2010,09,15,03,46,11.10
2010,09,15,03,47,11.10
2010,09,15,03,48,11.10
2010,09,15,03,49,11.10
2010,09,15,03,50,11.10
2010,09,15,03,51,11.10
2010,09,15,03,52,11.10
2010,09,15,03,53,11.10
2010,09,15,03,54,11.10
2010,09,15,03,55,11.10
2010,09,15,03,56,11.10
2010,09,15,03,57,11.20
2010,09,15,03,58,11.20
2010,09,15,03,59,11.20
2010,09,15,04,00,11.20
2010,09,15,04,01,11.20
2010,09,15,04,02,11.20
2010,09,15,04,03,11.20
2010,09,15,04,04,11.30
2010,09,15,04,05,11.30
2010,09,15,04,06,11.30
2010,09,15,04,07,11.30
2010,09,15,04,08,11.30
2010,09,15,04,09,11.30
2010,09,15,04,10,11.40
2010,09,15,04,11,11.40
2010,09,15,04,12,11.40
2010,09,15,04,13,11.40
2010,09,15,04,14,11.40
2010,09,15,04,15,11.40
2010,09,15,04,16,11.40
2010,09,15,04,17,11.40
2010,09,15,04,18,11.40
2010,09,15,04,19,11.40
2010,09,15,04,20,11.40
2010,09,15,04,21,11.40
2010,09,15,04,22,11.40
2010,09,15,04,23,11.40
2010,09,15,04,24,11.40
2010,09,15,04,25,11.40
2010,09,15,04,26,11.40
2010,09,15,04,27,11.40
2010,09,15,04,28,11.40
2010,09,15,04,29,11.40
2010,09,15,04,30,11.50
2010,09,15,04,31,11.50
2010,09,15,04,32,11.50
2010,09,15,04,33,11.50
2010,09,15,04,34,11.50
2010,09,15,04,35,11.50
2010,09,15,04,36,11.60
2010,09,15,04,37,11.60
2010,09,15,04,38,11.60
2010,09,15,04,39,11.60
2010,09,15,04,40,11.60
2010,09,15,04,41,11.60
2010,09,15,04,42,11.60
2010,09,15,04,43,11.60
2010,09,15,04,44,11.60
2010,09,15,04,45,11.60
2010,09,15,04,46,11.60
2010,09,15,04,47,11.60
2010,09,15,04,48,11.60
2010,09,15,04,49,11.60
2010,09,15,04,50,11.70
2010,09,15,04,51,11.70
2010,09,15,04,52,11.70
2010,09,15,04,53,11.70
2010,09,15,04,54,11.70
2010,09,15,04,55,11.70
2010,09,15,04,56,11.70
2010,09,15,04,57,11.70
2010,09,15,04,58,11.70
2010,09,15,04,59,11.70
2010,09,15,05,00,11.70
2010,09,15,05,01,11.80
2010,09,15,05,02,11.80
2010,09,15,05,03,11.90
2010,09,15,05,04,11.90
2010,09,15,05,05,11.90
2010,09,15,05,06,11.90
2010,09,15,05,07,11.90
2010,09,15,05,08,11.90
2010,09,15,05,09,11.90
2010,09,15,05,10,11.90
2010,09,15,05,11,11.90
2010,09,15,05,12,11.90
2010,09,15,05,13,11.90
2010,09,15,05,14,11.90
2010,09,15,05,15,11.90
2010,09,15,05,16,11.90
2010,09,15,05,17,11.90
2010,09,15,05,18,11.90
2010,09,15,05,19,11.90
2010,09,15,05,20,11.90
2010,09,15,05,21,11.90
2010,09,15,05,22,11.90
2010,09,15,05,23,11.90
2010,09,15,05,24,11.90
2010,09,15,05,25,11.90
2010,09,15,05,26,11.90
2010,09,15,05,27,11.90
2010,09,15,05,28,11.90
2010,09,15,05,29,11.90
2010,09,15,05,30,11.90
2010,09,15,05,31,11.90
2010,09,15,05,32,11.90
2010,09,15,05,33,11.90
2010,09,15,05,34,12.00
2010,09,15,05,35,11.90
2010,09,15,05,36,12.00
2010,09,15,05,37,11.90
2010,09,15,05,38,12.00
2010,09,15,05,39,12.00
2010,09,15,05,40,11.90
2010,09,15,05,41,12.00
2010,09,15,05,42,12.00
2010,09,15,05,43,12.00
2010,09,15,05,44,12.10
2010,09,15,05,45,12.10
2010,09,15,05,46,12.10
2010,09,15,05,47,12.10
2010,09,15,05,48,12.00
2010,09,15,05,49,12.00
2010,09,15,05,50,12.10
2010,09,15,05,51,12.10
2010,09,15,05,52,12.10
2010,09,15,05,53,12.10
2010,09,15,05,54,12.10
2010,09,15,05,55,12.10
2010,09,15,05,56,12.10
2010,09,15,05,57,12.10
2010,09,15,05,58,12.10
2010,09,15,05,59,12.10
2010,09,15,06,00,12.10
2010,09,15,06,01,12.10
2010,09,15,06,02,12.10
2010,09,15,06,03,12.10
2010,09,15,06,04,12.00
2010,09,15,06,05,12.00
2010,09,15,06,06,12.00
2010,09,15,06,07,12.00
2010,09,15,06,08,12.00
2010,09,15,06,09,12.00
2010,09,15,06,10,12.00
2010,09,15,06,11,12.00
2010,09,15,06,12,12.00
2010,09,15,06,13,12.00
2010,09,15,06,14,12.00
2010,09,15,06,15,12.00
2010,09,15,06,16,12.00
2010,09,15,06,17,12.00
2010,09,15,06,18,12.00
2010,09,15,06,19,12.00
2010,09,15,06,20,12.00
2010,09,15,06,21,12.00
2010,09,15,06,22,12.00
2010,09,15,06,23,12.00
2010,09,15,06,24,12.00
2010,09,15,06,25,12.00
2010,09,15,06,26,12.00
2010,09,15,06,27,12.10
2010,09,15,06,28,12.10
2010,09,15,06,29,12.10
2010,09,15,06,30,12.10
2010,09,15,06,31,12.10
2010,09,15,06,32,12.10
2010,09,15,06,33,12.10
2010,09,15,06,34,12.10
2010,09,15,06,35,12.10
2010,09,15,06,36,12.10
2010,09,15,06,37,12.10
2010,09,15,06,38,12.00
2010,09,15,06,39,12.00
2010,09,15,06,40,12.00
2010,09,15,06,41,12.00
2010,09,15,06,42,12.00
2010,09,15,06,43,12.00
2010,09,15,06,44,12.00
2010,09,15,06,45,12.00
2010,09,15,06,46,12.00
2010,09,15,06,47,12.00
2010,09,15,06,48,12.00
2010,09,15,06,49,12.00
2010,09,15,06,50,12.00
2010,09,15,06,51,12.00
2010,09,15,06,52,12.00
2010,09,15,06,53,12.00
2010,09,15,06,54,12.00
2010,09,15,06,55,12.00
2010,09,15,06,56,12.00
2010,09,15,06,57,12.10
2010,09,15,06,58,12.10
2010,09,15,06,59,12.10
2010,09,15,07,00,12.10
2010,09,15,07,01,12.10
2010,09,15,07,02,12.10
2010,09,15,07,03,12.10
2010,09,15,07,04,12.10
2010,09,15,07,05,12.20
2010,09,15,07,06,12.20
2010,09,15,07,07,12.20
2010,09,15,07,08,12.20
2010,09,15,07,09,12.20
2010,09,15,07,10,12.20
2010,09,15,07,11,12.20
2010,09,15,07,12,12.30
2010,09,15,07,13,12.30
2010,09,15,07,14,12.30
2010,09,15,07,15,12.20
2010,09,15,07,16,12.20
2010,09,15,07,17,12.20
2010,09,15,07,18,12.20
2010,09,15,07,19,12.20
2010,09,15,07,20,12.30
2010,09,15,07,21,12.30
2010,09,15,07,22,12.30
2010,09,15,07,23,12.30
2010,09,15,07,24,12.30
2010,09,15,07,25,12.30
2010,09,15,07,26,12.40
2010,09,15,07,27,12.40
2010,09,15,07,28,12.40
2010,09,15,07,29,12.40
2010,09,15,07,30,12.40
2010,09,15,07,31,12.30
2010,09,15,07,32,12.30
2010,09,15,07,33,12.30
2010,09,15,07,34,12.30
2010,09,15,07,35,12.30
2010,09,15,07,36,12.30
2010,09,15,07,37,12.40
2010,09,15,07,38,12.40
2010,09,15,07,39,12.40
2010,09,15,07,40,12.30
2010,09,15,07,41,12.30
2010,09,15,07,42,12.30
2010,09,15,07,43,12.30
2010,09,15,07,44,12.40
2010,09,15,07,45,12.40
2010,09,15,07,46,12.40
2010,09,15,07,47,12.50
2010,09,15,07,48,12.50
2010,09,15,07,49,12.50
2010,09,15,07,50,12.50
2010,09,15,07,51,12.50
2010,09,15,07,52,12.60
2010,09,15,07,53,12.60
2010,09,15,07,54,12.60
2010,09,15,07,55,12.60
2010,09,15,07,56,12.60
2010,09,15,07,57,12.50
2010,09,15,07,58,12.50
2010,09,15,07,59,12.50
2010,09,15,08,00,12.50
2010,09,15,08,01,12.50
2010,09,15,08,02,12.50
2010,09,15,08,03,12.60
2010,09,15,08,04,12.60
2010,09,15,08,05,12.60
2010,09,15,08,06,12.60
2010,09,15,08,07,12.70
2010,09,15,08,08,12.70
2010,09,15,08,09,12.70
2010,09,15,08,10,12.80
2010,09,15,08,11,12.80
2010,09,15,08,12,12.80
2010,09,15,08,13,12.90
2010,09,15,08,14,12.90
2010,09,15,08,15,12.90
2010,09,15,08,16,12.90
2010,09,15,08,17,12.90
2010,09,15,08,18,12.90
2010,09,15,08,19,12.90
2010,09,15,08,20,12.90
2010,09,15,08,21,13.00
2010,09,15,08,22,13.00
2010,09,15,08,23,13.00
2010,09,15,08,24,13.10
2010,09,15,08,25,13.10
2010,09,15,08,26,13.10
2010,09,15,08,27,13.10
2010,09,15,08,28,13.10
2010,09,15,08,29,13.10
2010,09,15,08,30,13.10
2010,09,15,08,31,13.10
2010,09,15,08,32,13.10
2010,09,15,08,33,13.20
2010,09,15,08,34,13.20
2010,09,15,08,35,13.20
2010,09,15,08,36,13.20
2010,09,15,08,37,13.20
2010,09,15,08,38,13.30
2010,09,15,08,39,13.30
2010,09,15,08,40,13.30
2010,09,15,08,41,13.30
2010,09,15,08,42,13.30
2010,09,15,08,43,13.30
2010,09,15,08,44,13.30
2010,09,15,08,45,13.30
2010,09,15,08,46,13.40
2010,09,15,08,47,13.40
2010,09,15,08,48,13.40
2010,09,15,08,49,13.40
2010,09,15,08,50,13.50
2010,09,15,08,51,13.50
2010,09,15,08,52,13.60
2010,09,15,08,53,13.60
2010,09,15,08,54,13.60
2010,09,15,08,55,13.60
2010,09,15,08,56,13.70
2010,09,15,08,57,13.70
2010,09,15,08,58,13.70
2010,09,15,08,59,13.70
2010,09,15,09,00,13.80
2010,09,15,09,01,13.80
2010,09,15,09,02,13.80
2010,09,15,09,03,13.80
2010,09,15,09,04,13.80
2010,09,15,09,05,13.70
2010,09,15,09,06,13.70
2010,09,15,09,07,13.80
2010,09,15,09,08,13.80
2010,09,15,09,09,13.80
2010,09,15,09,10,13.80
2010,09,15,09,11,13.80
2010,09,15,09,12,13.80
2010,09,15,09,13,13.90
2010,09,15,09,14,13.90
2010,09,15,09,15,13.90
2010,09,15,09,16,14.00
2010,09,15,09,17,14.00
2010,09,15,09,18,14.00
2010,09,15,09,19,14.00
2010,09,15,09,20,14.10
2010,09,15,09,21,14.10
2010,09,15,09,22,14.10
2010,09,15,09,23,14.20
2010,09,15,09,24,14.20
2010,09,15,09,25,14.20
2010,09,15,09,26,14.20
2010,09,15,09,27,14.30
2010,09,15,09,28,14.30
2010,09,15,09,29,14.30
2010,09,15,09,30,14.30
2010,09,15,09,31,14.40
2010,09,15,09,32,14.40
2010,09,15,09,33,14.40
2010,09,15,09,34,14.50
2010,09,15,09,35,14.50
2010,09,15,09,36,14.50
2010,09,15,09,37,14.60
2010,09,15,09,38,14.60
2010,09,15,09,39,14.60
2010,09,15,09,40,14.60
2010,09,15,09,41,14.60
2010,09,15,09,42,14.70
2010,09,15,09,43,14.70
2010,09,15,09,44,14.70
2010,09,15,09,45,14.80
2010,09,15,09,46,14.80
2010,09,15,09,47,14.90
2010,09,15,09,48,15.00
2010,09,15,09,49,15.00
2010,09,15,09,50,15.00
2010,09,15,09,51,15.00
2010,09,15,09,52,15.00
2010,09,15,09,53,15.00
2010,09,15,09,54,15.00
2010,09,15,09,55,15.00
2010,09,15,09,56,15.00
2010,09,15,09,57,15.10
2010,09,15,09,58,15.20
2010,09,15,09,59,15.20
2010,09,15,10,00,15.30
2010,09,15,10,01,15.30
2010,09,15,10,02,15.40
2010,09,15,10,03,15.50
2010,09,15,10,04,15.60
2010,09,15,10,05,15.60
2010,09,15,10,06,15.70
2010,09,15,10,07,15.70
2010,09,15,10,08,15.80
2010,09,15,10,09,15.90
2010,09,15,10,10,16.00
2010,09,15,10,11,16.10
2010,09,15,10,12,16.20
2010,09,15,10,13,16.20
2010,09,15,10,14,16.30
2010,09,15,10,15,16.30
2010,09,15,10,16,16.40
2010,09,15,10,17,16.50
2010,09,15,10,18,16.60
2010,09,15,10,19,16.60
2010,09,15,10,20,16.70
2010,09,15,10,21,16.70
2010,09,15,10,22,16.80
2010,09,15,10,23,16.80
2010,09,15,10,24,16.80
2010,09,15,10,25,16.80
2010,09,15,10,26,16.90
2010,09,15,10,27,16.90
2010,09,15,10,28,16.90
2010,09,15,10,29,16.90
2010,09,15,10,30,16.90
2010,09,15,10,31,16.90
2010,09,15,10,32,16.90
2010,09,15,10,33,16.90
2010,09,15,10,34,16.90
2010,09,15,10,35,16.90
2010,09,15,10,36,16.90
2010,09,15,10,37,16.90
2010,09,15,10,38,16.90
2010,09,15,10,39,17.00
2010,09,15,10,40,17.00
2010,09,15,10,41,17.10
2010,09,15,10,42,17.10
2010,09,15,10,43,17.10
2010,09,15,10,44,17.20
2010,09,15,10,45,17.20
2010,09,15,10,46,17.20
2010,09,15,10,47,17.20
2010,09,15,10,48,17.30
2010,09,15,10,49,17.30
2010,09,15,10,50,17.30
2010,09,15,10,51,17.30
2010,09,15,10,52,17.40
2010,09,15,10,53,17.40
2010,09,15,10,54,17.50
2010,09,15,10,55,17.50
2010,09,15,10,56,17.50
2010,09,15,10,57,17.40
2010,09,15,10,58,17.40
2010,09,15,10,59,17.40
2010,09,15,11,00,17.40
2010,09,15,11,01,17.40
2010,09,15,11,02,17.30
2010,09,15,11,03,17.30
2010,09,15,11,04,17.30
2010,09,15,11,05,17.20
2010,09,15,11,06,17.20
2010,09,15,11,07,17.10
2010,09,15,11,08,17.00
2010,09,15,11,09,17.00
2010,09,15,11,10,17.10
2010,09,15,11,11,17.10
2010,09,15,11,12,17.20
2010,09,15,11,13,17.30
2010,09,15,11,14,17.20
2010,09,15,11,15,17.20
2010,09,15,11,16,17.20
2010,09,15,11,17,17.30
2010,09,15,11,18,17.30
2010,09,15,11,19,17.50
2010,09,15,11,20,17.60
2010,09,15,11,21,17.70
2010,09,15,11,22,17.90
2010,09,15,11,23,18.00
2010,09,15,11,24,18.20
2010,09,15,11,25,18.20
2010,09,15,11,26,18.10
2010,09,15,11,27,18.10
2010,09,15,11,28,18.10
2010,09,15,11,29,18.20
2010,09,15,11,30,18.20
2010,09,15,11,31,18.20
2010,09,15,11,32,18.10
2010,09,15,11,33,18.00
2010,09,15,11,34,17.80
2010,09,15,11,35,17.70
2010,09,15,11,36,17.60
2010,09,15,11,37,17.60
2010,09,15,11,38,17.50
2010,09,15,11,39,17.40
2010,09,15,11,40,17.40
2010,09,15,11,41,17.30
2010,09,15,11,42,17.30
2010,09,15,11,43,17.30
2010,09,15,11,44,17.30
2010,09,15,11,45,17.40
2010,09,15,11,46,17.50
2010,09,15,11,47,17.50
2010,09,15,11,48,17.60
2010,09,15,11,49,17.70
2010,09,15,11,50,17.70
2010,09,15,11,51,17.80
2010,09,15,11,52,17.80
2010,09,15,11,53,17.90
2010,09,15,11,54,17.80
2010,09,15,11,55,17.80
2010,09,15,11,56,17.70
2010,09,15,11,57,17.60
2010,09,15,11,58,17.60
2010,09,15,11,59,17.60
2010,09,15,12,00,17.60
2010,09,15,12,01,17.60
2010,09,15,12,02,17.60
2010,09,15,12,03,17.60
2010,09,15,12,04,17.60
2010,09,15,12,05,17.70
2010,09,15,12,06,17.70
2010,09,15,12,07,17.70
2010,09,15,12,08,17.70
2010,09,15,12,09,17.70
2010,09,15,12,10,17.70
2010,09,15,12,11,17.80
2010,09,15,12,12,17.90
2010,09,15,12,13,17.90
2010,09,15,12,14,17.90
2010,09,15,12,15,17.90
2010,09,15,12,16,17.90
2010,09,15,12,17,17.90
2010,09,15,12,18,17.90
2010,09,15,12,19,18.00
2010,09,15,12,20,18.00
2010,09,15,12,21,18.00
2010,09,15,12,22,17.90
2010,09,15,12,23,17.90
2010,09,15,12,24,17.90
2010,09,15,12,25,17.90
2010,09,15,12,26,17.80
2010,09,15,12,27,17.80
2010,09,15,12,28,17.80
2010,09,15,12,29,17.80
2010,09,15,12,30,17.70
2010,09,15,12,31,17.70
2010,09,15,12,32,17.70
2010,09,15,12,33,17.70
2010,09,15,12,34,17.60
2010,09,15,12,35,17.60
2010,09,15,12,36,17.60
2010,09,15,12,37,17.50
2010,09,15,12,38,17.50
2010,09,15,12,39,17.50
2010,09,15,12,40,17.50
2010,09,15,12,41,17.50
2010,09,15,12,42,17.50
2010,09,15,12,43,17.50
2010,09,15,12,44,17.40
2010,09,15,12,45,17.40
2010,09,15,12,46,17.50
2010,09,15,12,47,17.40
2010,09,15,12,48,17.40
2010,09,15,12,49,17.30
2010,09,15,12,50,17.30
2010,09,15,12,51,17.30
2010,09,15,12,52,17.40
2010,09,15,12,53,17.30
2010,09,15,12,54,17.30
2010,09,15,12,55,17.20
2010,09,15,12,56,17.10
2010,09,15,12,57,17.10
2010,09,15,12,58,17.10
2010,09,15,12,59,17.10
2010,09,15,13,00,17.10
2010,09,15,13,01,17.10
2010,09,15,13,02,17.10
2010,09,15,13,03,17.00
2010,09,15,13,04,16.90
2010,09,15,13,05,16.90
2010,09,15,13,06,17.00
2010,09,15,13,07,17.00
2010,09,15,13,08,17.00
2010,09,15,13,09,17.00
2010,09,15,13,10,17.00
2010,09,15,13,11,17.00
2010,09,15,13,12,17.00
2010,09,15,13,13,17.00
2010,09,15,13,14,17.00
2010,09,15,13,15,17.00
2010,09,15,13,16,17.00
2010,09,15,13,17,17.00
2010,09,15,13,18,17.00
2010,09,15,13,19,17.00
2010,09,15,13,20,17.00
2010,09,15,13,21,17.00
2010,09,15,13,22,17.00
2010,09,15,13,23,16.90
2010,09,15,13,24,16.90
2010,09,15,13,25,16.90
2010,09,15,13,26,16.90
2010,09,15,13,27,16.90
2010,09,15,13,28,16.90
2010,09,15,13,29,16.90
2010,09,15,13,30,16.90
2010,09,15,13,31,16.90
2010,09,15,13,32,16.90
2010,09,15,13,33,16.90
2010,09,15,13,34,17.00
2010,09,15,13,35,17.00
2010,09,15,13,36,17.10
2010,09,15,13,37,17.10
2010,09,15,13,38,17.10
2010,09,15,13,39,17.10
2010,09,15,13,40,17.00
2010,09,15,13,41,16.90
2010,09,15,13,42,16.90
2010,09,15,13,43,16.80
2010,09,15,13,44,16.70
2010,09,15,13,45,16.70
2010,09,15,13,46,16.70
2010,09,15,13,47,16.70
2010,09,15,13,48,16.70
2010,09,15,13,49,16.70
2010,09,15,13,50,16.70
2010,09,15,13,51,16.70
2010,09,15,13,52,16.80
2010,09,15,13,53,16.80
2010,09,15,13,54,16.90
2010,09,15,13,55,16.90
2010,09,15,13,56,16.90
2010,09,15,13,57,16.90
2010,09,15,13,58,16.90
2010,09,15,13,59,16.90
2010,09,15,14,00,16.90
2010,09,15,14,01,17.00
2010,09,15,14,02,17.00
2010,09,15,14,03,17.00
2010,09,15,14,04,17.00
2010,09,15,14,05,17.00
2010,09,15,14,06,17.10
2010,09,15,14,07,17.10
2010,09,15,14,08,17.10
2010,09,15,14,09,17.20
2010,09,15,14,10,17.20
2010,09,15,14,11,17.20
2010,09,15,14,12,17.20
2010,09,15,14,13,17.30
2010,09,15,14,14,17.30
2010,09,15,14,15,17.30
2010,09,15,14,16,17.30
2010,09,15,14,17,17.30
2010,09,15,14,18,17.30
2010,09,15,14,19,17.30
2010,09,15,14,20,17.30
2010,09,15,14,21,17.40
2010,09,15,14,22,17.40
2010,09,15,14,23,17.40
2010,09,15,14,24,17.40
2010,09,15,14,25,17.40
2010,09,15,14,26,17.40
2010,09,15,14,27,17.40
2010,09,15,14,28,17.40
2010,09,15,14,29,17.40
2010,09,15,14,30,17.40
2010,09,15,14,31,17.40
2010,09,15,14,32,17.40
2010,09,15,14,33,17.40
2010,09,15,14,34,17.40
2010,09,15,14,35,17.40
2010,09,15,14,36,17.40
2010,09,15,14,37,17.50
2010,09,15,14,38,17.50
2010,09,15,14,39,17.50
2010,09,15,14,40,17.50
2010,09,15,14,41,17.40
2010,09,15,14,42,17.40
2010,09,15,14,43,17.40
2010,09,15,14,44,17.40
2010,09,15,14,45,17.40
2010,09,15,14,46,17.40
2010,09,15,14,47,17.40
2010,09,15,14,48,17.40
2010,09,15,14,49,17.30
2010,09,15,14,50,17.30
2010,09,15,14,51,17.30
2010,09,15,14,52,17.20
2010,09,15,14,53,17.20
2010,09,15,14,54,17.10
2010,09,15,14,55,17.10
2010,09,15,14,56,17.00
2010,09,15,14,57,17.00
2010,09,15,14,58,16.90
2010,09,15,14,59,16.80
2010,09,15,15,00,16.80
2010,09,15,15,01,16.80
2010,09,15,15,02,16.80
2010,09,15,15,03,16.80
2010,09,15,15,04,16.70
2010,09,15,15,05,16.70
2010,09,15,15,06,16.70
2010,09,15,15,07,16.70
2010,09,15,15,08,16.70
2010,09,15,15,09,16.70
2010,09,15,15,10,16.70
2010,09,15,15,11,16.70
2010,09,15,15,12,16.60
2010,09,15,15,13,16.60
2010,09,15,15,14,16.60
2010,09,15,15,15,16.60
2010,09,15,15,16,16.60
2010,09,15,15,17,16.50
2010,09,15,15,18,16.50
2010,09,15,15,19,16.40
2010,09,15,15,20,16.40
2010,09,15,15,21,16.40
2010,09,15,15,22,16.40
2010,09,15,15,23,16.40
2010,09,15,15,24,16.40
2010,09,15,15,25,16.40
2010,09,15,15,26,16.40
2010,09,15,15,27,16.30
2010,09,15,15,28,16.30
2010,09,15,15,29,16.30
2010,09,15,15,30,16.30
2010,09,15,15,31,16.30
2010,09,15,15,32,16.30
2010,09,15,15,33,16.30
2010,09,15,15,34,16.30
2010,09,15,15,35,16.30
2010,09,15,15,36,16.30
2010,09,15,15,37,16.30
2010,09,15,15,38,16.30
2010,09,15,15,39,16.30
2010,09,15,15,40,16.30
2010,09,15,15,41,16.30
2010,09,15,15,42,16.30
2010,09,15,15,43,16.30
2010,09,15,15,44,16.30
2010,09,15,15,45,16.20
2010,09,15,15,46,16.10
2010,09,15,15,47,16.10
2010,09,15,15,48,16.00
2010,09,15,15,49,16.00
2010,09,15,15,50,15.90
2010,09,15,15,51,15.90
2010,09,15,15,52,15.80
2010,09,15,15,53,15.80
2010,09,15,15,54,15.80
2010,09,15,15,55,15.80
2010,09,15,15,56,15.80
2010,09,15,15,57,15.70
2010,09,15,15,58,15.70
2010,09,15,15,59,15.70
2010,09,15,16,00,15.70
2010,09,15,16,01,15.70
2010,09,15,16,02,15.70
2010,09,15,16,03,15.70
2010,09,15,16,04,15.70
2010,09,15,16,05,15.70
2010,09,15,16,06,15.70
2010,09,15,16,07,15.70
2010,09,15,16,08,15.60
2010,09,15,16,09,15.60
2010,09,15,16,10,15.60
2010,09,15,16,11,15.70
2010,09,15,16,12,15.70
2010,09,15,16,13,15.70
2010,09,15,16,14,15.70
2010,09,15,16,15,15.70
2010,09,15,16,16,15.60
2010,09,15,16,17,15.70
2010,09,15,16,18,15.70
2010,09,15,16,19,15.70
2010,09,15,16,20,15.70
2010,09,15,16,21,15.70
2010,09,15,16,22,15.70
2010,09,15,16,23,15.60
2010,09,15,16,24,15.60
2010,09,15,16,25,15.60
2010,09,15,16,26,15.60
2010,09,15,16,27,15.60
2010,09,15,16,28,15.60
2010,09,15,16,29,15.60
2010,09,15,16,30,15.60
2010,09,15,16,31,15.60
2010,09,15,16,32,15.60
2010,09,15,16,33,15.60
2010,09,15,16,34,15.60
2010,09,15,16,35,15.60
2010,09,15,16,36,15.60
2010,09,15,16,37,15.60
2010,09,15,16,38,15.60
2010,09,15,16,39,15.70
2010,09,15,16,40,15.70
2010,09,15,16,41,15.70
2010,09,15,16,42,15.70
2010,09,15,16,43,15.70
2010,09,15,16,44,15.70
2010,09,15,16,45,15.70
2010,09,15,16,46,15.70
2010,09,15,16,47,15.70
2010,09,15,16,48,15.60
2010,09,15,16,49,15.60
2010,09,15,16,50,15.70
2010,09,15,16,51,15.60
2010,09,15,16,52,15.60
2010,09,15,16,53,15.70
2010,09,15,16,54,15.70
2010,09,15,16,55,15.70
2010,09,15,16,56,15.70
2010,09,15,16,57,15.70
2010,09,15,16,58,15.70
2010,09,15,16,59,15.70
2010,09,15,17,00,15.70
2010,09,15,17,01,15.70
2010,09,15,17,02,15.70
2010,09,15,17,03,15.70
2010,09,15,17,04,15.70
2010,09,15,17,05,15.60
2010,09,15,17,06,15.60
2010,09,15,17,07,15.60
2010,09,15,17,08,15.70
2010,09,15,17,09,15.70
2010,09,15,17,10,15.70
2010,09,15,17,11,15.70
2010,09,15,17,12,15.70
2010,09,15,17,13,15.80
2010,09,15,17,14,15.80
2010,09,15,17,15,15.80
2010,09,15,17,16,15.80
2010,09,15,17,17,15.80
2010,09,15,17,18,15.80
2010,09,15,17,19,15.80